DAL2554 KMIA-PANC

Flight info

Callsign DAL2554
Flight time N/A
Altitude 34000
Route JOH PTERS3
Aircraft A35K/H-SDE2E3GHIJ3J4J5LM1ORWXY/LB1D1

Departure

Time N/A
Airport Miami International Airport (KMIA)

Arrival

Time 2026-05-06 03:37
Airport Ted Stevens Anchorage International Airport (PANC)
Time Latitude Longitude Altitude Speed Heading
2026-05-06 02:52 59.70738 -142.06078 33999 ft 491 kts 286°
2026-05-06 02:53 59.71678 -142.12611 33999 ft 491 kts 286°
2026-05-06 02:53 59.73538 -142.25565 34001 ft 491 kts 285°
2026-05-06 02:54 59.75401 -142.38572 33999 ft 491 kts 285°
2026-05-06 02:54 59.77270 -142.51655 34000 ft 491 kts 285°
2026-05-06 02:55 59.79127 -142.64689 34001 ft 491 kts 285°
2026-05-06 02:55 59.80980 -142.77735 34000 ft 491 kts 285°
2026-05-06 02:56 59.82819 -142.90712 34001 ft 491 kts 285°
2026-05-06 02:56 59.84670 -143.03807 34000 ft 491 kts 285°
2026-05-06 02:57 59.86515 -143.16895 34000 ft 491 kts 285°
2026-05-06 02:57 59.88353 -143.29978 34000 ft 491 kts 285°
2026-05-06 02:58 59.90177 -143.42993 34000 ft 491 kts 285°
2026-05-06 02:58 59.92010 -143.56107 34000 ft 491 kts 285°
2026-05-06 02:59 59.93837 -143.69220 34001 ft 491 kts 285°
2026-05-06 02:59 59.95665 -143.82372 34000 ft 491 kts 285°
2026-05-06 03:00 59.97485 -143.95508 34001 ft 491 kts 285°
2026-05-06 03:00 59.99287 -144.08553 34001 ft 491 kts 285°
2026-05-06 03:01 60.01104 -144.21744 34001 ft 491 kts 285°
2026-05-06 03:01 60.02913 -144.34911 34000 ft 491 kts 285°
2026-05-06 03:02 60.04717 -144.48085 34000 ft 491 kts 285°
2026-05-06 03:02 60.06505 -144.61186 34000 ft 491 kts 285°
2026-05-06 03:03 60.08303 -144.74392 34000 ft 491 kts 285°
2026-05-06 03:03 60.10095 -144.87602 34001 ft 491 kts 285°
2026-05-06 03:04 60.11884 -145.00825 34000 ft 491 kts 285°
2026-05-06 03:04 60.13668 -145.14056 34000 ft 491 kts 285°
2026-05-06 03:05 60.15435 -145.27197 34001 ft 491 kts 285°
2026-05-06 03:05 60.17210 -145.40439 34000 ft 491 kts 285°
2026-05-06 03:06 60.18980 -145.53694 34001 ft 491 kts 285°
2026-05-06 03:06 60.20747 -145.66958 34000 ft 491 kts 285°
2026-05-06 03:07 60.22510 -145.80248 34000 ft 491 kts 285°
2026-05-06 03:07 60.24255 -145.93436 33977 ft 490 kts 285°
2026-05-06 03:07 60.25127 -146.00043 33651 ft 488 kts 285°
2026-05-06 03:08 60.25998 -146.06653 33170 ft 486 kts 285°
2026-05-06 03:08 60.26865 -146.13242 32663 ft 486 kts 284°
2026-05-06 03:08 60.27732 -146.19843 32169 ft 487 kts 284°
2026-05-06 03:08 60.28598 -146.26452 31658 ft 488 kts 284°
2026-05-06 03:09 60.29466 -146.33081 31178 ft 490 kts 284°
2026-05-06 03:09 60.30337 -146.39748 30675 ft 491 kts 284°
2026-05-06 03:09 60.31207 -146.46415 30174 ft 492 kts 284°
2026-05-06 03:09 60.32070 -146.53045 29683 ft 495 kts 284°
2026-05-06 03:10 60.32944 -146.59764 29178 ft 496 kts 284°
2026-05-06 03:10 60.33818 -146.66504 28680 ft 494 kts 284°
2026-05-06 03:10 60.34686 -146.73200 28182 ft 491 kts 284°
2026-05-06 03:10 60.35545 -146.79846 27680 ft 487 kts 284°
2026-05-06 03:11 60.36394 -146.86426 27180 ft 483 kts 284°
2026-05-06 03:11 60.37239 -146.92979 26669 ft 479 kts 284°
2026-05-06 03:11 60.38075 -146.99474 26185 ft 475 kts 284°
2026-05-06 03:11 60.38902 -147.05918 25672 ft 472 kts 284°
2026-05-06 03:12 60.39724 -147.12324 25176 ft 468 kts 284°
2026-05-06 03:12 60.40538 -147.18682 24676 ft 465 kts 284°
2026-05-06 03:12 60.41345 -147.24997 24177 ft 461 kts 284°
2026-05-06 03:12 60.41874 -147.29146 23842 ft 459 kts 284°
2026-05-06 03:13 60.42926 -147.37397 23186 ft 454 kts 284°
2026-05-06 03:13 60.43710 -147.43566 22686 ft 451 kts 284°
2026-05-06 03:13 60.44487 -147.49688 22173 ft 447 kts 284°
2026-05-06 03:13 60.45009 -147.53803 21833 ft 445 kts 284°
2026-05-06 03:14 60.45910 -147.59691 21334 ft 442 kts 294°
2026-05-06 03:14 60.47504 -147.64982 20841 ft 438 kts 309°
2026-05-06 03:14 60.49563 -147.69500 20346 ft 435 kts 314°
2026-05-06 03:14 60.51703 -147.73824 19845 ft 432 kts 315°
2026-05-06 03:15 60.53840 -147.78106 19336 ft 429 kts 315°
2026-05-06 03:15 60.55956 -147.82350 18850 ft 426 kts 315°
2026-05-06 03:15 60.58068 -147.86589 18337 ft 423 kts 315°
2026-05-06 03:15 60.60159 -147.90788 17840 ft 420 kts 315°
2026-05-06 03:16 60.62212 -147.94916 17345 ft 418 kts 315°
2026-05-06 03:16 60.64264 -147.99047 16835 ft 408 kts 315°
2026-05-06 03:16 60.66282 -148.03113 16340 ft 407 kts 315°
2026-05-06 03:16 60.68302 -148.07188 15839 ft 407 kts 315°
2026-05-06 03:17 60.70315 -148.11253 15341 ft 405 kts 315°
2026-05-06 03:17 60.72311 -148.15288 14835 ft 402 kts 315°
2026-05-06 03:17 60.74268 -148.19246 14338 ft 400 kts 315°
2026-05-06 03:17 60.76235 -148.23230 13839 ft 395 kts 315°
2026-05-06 03:18 60.78183 -148.27180 13341 ft 392 kts 315°
2026-05-06 03:18 60.80121 -148.31114 12841 ft 390 kts 315°
2026-05-06 03:18 60.82050 -148.35030 12338 ft 388 kts 315°
2026-05-06 03:18 60.83919 -148.38832 11827 ft 368 kts 315°
2026-05-06 03:19 60.85676 -148.42406 11330 ft 356 kts 315°
2026-05-06 03:19 60.87460 -148.46037 10830 ft 355 kts 315°
2026-05-06 03:19 60.89188 -148.49559 10390 ft 352 kts 315°
2026-05-06 03:19 60.90901 -148.53054 10219 ft 340 kts 315°
2026-05-06 03:20 60.94106 -148.59593 10197 ft 308 kts 315°
2026-05-06 03:20 60.95589 -148.62622 10201 ft 293 kts 315°
2026-05-06 03:20 60.97007 -148.65519 10197 ft 281 kts 315°
2026-05-06 03:21 60.98432 -148.68432 10217 ft 301 kts 315°
2026-05-06 03:21 60.99889 -148.71414 10198 ft 289 kts 315°
2026-05-06 03:21 61.01334 -148.74375 10205 ft 290 kts 315°
2026-05-06 03:21 61.02756 -148.77289 10206 ft 293 kts 315°
2026-05-06 03:22 61.04189 -148.80269 10202 ft 292 kts 313°
2026-05-06 03:22 61.05410 -148.83628 10213 ft 292 kts 302°
2026-05-06 03:22 61.06458 -148.87220 10205 ft 292 kts 300°
2026-05-06 03:22 61.07485 -148.90868 10212 ft 294 kts 300°
2026-05-06 03:23 61.08510 -148.94526 10209 ft 294 kts 300°
2026-05-06 03:23 61.09520 -148.98139 10207 ft 294 kts 300°
2026-05-06 03:23 61.10542 -149.01795 10211 ft 293 kts 300°
2026-05-06 03:23 61.11560 -149.05442 10205 ft 292 kts 300°
2026-05-06 03:24 61.12579 -149.09092 10211 ft 292 kts 300°
2026-05-06 03:24 61.13589 -149.12717 10206 ft 290 kts 300°
2026-05-06 03:24 61.14592 -149.16320 10209 ft 290 kts 300°
2026-05-06 03:24 61.15601 -149.19947 10205 ft 292 kts 300°
2026-05-06 03:25 61.16598 -149.23531 10205 ft 285 kts 300°
2026-05-06 03:25 61.17586 -149.27086 10207 ft 291 kts 300°
2026-05-06 03:25 61.18598 -149.30730 10205 ft 292 kts 300°
2026-05-06 03:25 61.19616 -149.34399 10211 ft 294 kts 300°
2026-05-06 03:26 61.20635 -149.38075 10205 ft 293 kts 300°
2026-05-06 03:26 61.21651 -149.41743 10211 ft 292 kts 300°
2026-05-06 03:26 61.22662 -149.45399 10174 ft 292 kts 300°
2026-05-06 03:26 61.23667 -149.49035 9778 ft 294 kts 300°
2026-05-06 03:27 61.24671 -149.52673 9327 ft 286 kts 300°
2026-05-06 03:27 61.25661 -149.56257 8688 ft 284 kts 300°
2026-05-06 03:27 61.26624 -149.59749 8293 ft 271 kts 300°
2026-05-06 03:27 61.27521 -149.62998 8198 ft 246 kts 300°
2026-05-06 03:28 61.28337 -149.65957 8218 ft 227 kts 300°
2026-05-06 03:28 61.29103 -149.68732 8201 ft 219 kts 299°
2026-05-06 03:28 61.29854 -149.71458 8165 ft 217 kts 299°
2026-05-06 03:28 61.30616 -149.74221 7636 ft 222 kts 300°
2026-05-06 03:29 61.31400 -149.77070 6891 ft 231 kts 299°
2026-05-06 03:29 61.32195 -149.79959 6389 ft 227 kts 299°
2026-05-06 03:29 61.32954 -149.82720 6206 ft 212 kts 299°
2026-05-06 03:29 61.33651 -149.85254 6194 ft 195 kts 299°
2026-05-06 03:30 61.34305 -149.87631 6074 ft 184 kts 299°
2026-05-06 03:30 61.34925 -149.89887 5893 ft 175 kts 299°
2026-05-06 03:30 61.35522 -149.92054 5645 ft 171 kts 299°
2026-05-06 03:30 61.36109 -149.94191 5362 ft 169 kts 299°
2026-05-06 03:31 61.36690 -149.96307 5079 ft 167 kts 300°
2026-05-06 03:31 61.37034 -149.98605 4715 ft 168 kts 269°
2026-05-06 03:31 61.36878 -150.00983 4449 ft 165 kts 257°
2026-05-06 03:31 61.36596 -150.03275 4155 ft 165 kts 255°
2026-05-06 03:32 61.36180 -150.05493 3809 ft 167 kts 234°
2026-05-06 03:32 61.35245 -150.06877 3522 ft 165 kts 202°
2026-05-06 03:32 61.34154 -150.07615 3262 ft 164 kts 195°
2026-05-06 03:32 61.33046 -150.08210 3011 ft 165 kts 194°
2026-05-06 03:33 61.31932 -150.08783 2749 ft 164 kts 194°
2026-05-06 03:33 61.30813 -150.09293 2435 ft 164 kts 190°
2026-05-06 03:33 61.29718 -150.09800 2215 ft 159 kts 194°
2026-05-06 03:33 61.28664 -150.10324 2208 ft 156 kts 194°
2026-05-06 03:34 61.27601 -150.10861 2208 ft 158 kts 194°
2026-05-06 03:34 61.26533 -150.11401 2210 ft 158 kts 194°
2026-05-06 03:34 61.25450 -150.11720 2190 ft 158 kts 176°
2026-05-06 03:34 61.24551 -150.10543 2117 ft 159 kts 121°
2026-05-06 03:35 61.24187 -150.08373 2162 ft 159 kts 104°
2026-05-06 03:35 61.23927 -150.06124 1943 ft 159 kts 105°
2026-05-06 03:35 61.23443 -150.04102 1607 ft 155 kts 130°
2026-05-06 03:35 61.22639 -150.02747 1281 ft 148 kts 164°
2026-05-06 03:36 61.21666 -150.02199 847 ft 146 kts 171°
2026-05-06 03:36 61.20649 -150.01824 429 ft 150 kts 163°
2026-05-06 03:36 61.19649 -150.01264 179 ft 143 kts 168°
2026-05-06 03:36 61.18839 -150.00826 156 ft 93 kts 164°
2026-05-06 03:37 61.18323 -150.00532 147 ft 66 kts 165°
2026-05-06 03:37 61.18014 -150.00349 148 ft 31 kts 156°
2026-05-06 03:37 61.17835 -150.00110 141 ft 25 kts 138°
2026-05-06 03:37 61.17837 -149.99908 137 ft 13 kts
2026-05-06 03:38 61.17879 -149.99932 137 ft 0 kts 342°
2026-05-06 03:40 61.17877 -149.99931 137 ft 1 kts 342°
2026-05-06 03:40 61.17867 -149.99924 137 ft 2 kts 342°
2026-05-06 03:40 61.17847 -149.99913 137 ft 3 kts 348°
2026-05-06 03:40 61.17828 -149.99904 137 ft 3 kts 347°
2026-05-06 03:41 61.17814 -149.99898 137 ft 1 kts 347°
2026-05-06 03:41 61.17812 -149.99897 137 ft 0 kts 346°
2026-05-06 03:41 61.17811 -149.99897 137 ft 1 kts 346°
2026-05-06 03:41 61.17764 -149.99873 138 ft 7 kts 345°
2026-05-06 03:42 61.17713 -149.99845 138 ft 7 kts 345°
2026-05-06 03:42 61.17662 -149.99816 137 ft 7 kts 345°
2026-05-06 03:42 61.17612 -149.99788 138 ft 7 kts 345°
2026-05-06 03:42 61.17615 -149.99787 138 ft 4 kts 354°
2026-05-06 03:43 61.17658 -149.99744 136 ft 9 kts 32°
2026-05-06 03:43 61.17685 -149.99617 128 ft 12 kts 82°
2026-05-06 03:43 61.17641 -149.99433 120 ft 18 kts 137°
2026-05-06 03:43 61.17525 -149.99339 120 ft 17 kts 162°
2026-05-06 03:44 61.17405 -149.99252 118 ft 19 kts 160°
2026-05-06 03:44 61.17314 -149.99108 118 ft 17 kts 101°
2026-05-06 03:44 61.17319 -149.99020 117 ft 0 kts 71°
2026-05-06 03:45 61.17320 -149.99018 117 ft 1 kts 72°
2026-05-06 03:45 61.17326 -149.98962 116 ft 7 kts 80°